Regional Weather Roundup
Issued by NWS

Home | Current Version | Previous Version | Text Only | Print | Product List | Glossary Off
Versions: 1 2 3 4 5 6 7 8 9 10 11 12 13 14 15 16 17 18 19 20 21 22 23 24 25 26 27 28 29 30 31 32 33 34 35 36 37 38 39 40 41 42 43 44 45 46 47 48 49 50

000
ASUS43 KFSD 270902
RWRSD

WEATHER ROUNDUP FOR SOUTH DAKOTA
NATIONAL WEATHER SERVICE SIOUX FALLS SD
400 AM CDT MON MAR 27 2017

NOTE: "FAIR" INDICATES FEW OR NO CLOUDS BELOW 12,000 FEET WITH NO
SIGNIFICANT WEATHER AND/OR OBSTRUCTIONS TO VISIBILITY.


SDZ001>005-009-010-012>017-271000-
NORTHWEST AND NORTH CENTRAL SOUTH DAKOTA

CITY           SKY/WX    TMP DP  RH WIND       PRES   REMARKS
BUFFALO          N/A     38  34  85 E5        29.81F
FAITH            N/A     35  35 100 MISG      29.90F
MOBRIDGE       CLEAR     37  33  85 SE6       29.89F
$$

SDZ012>016-024>037-041>051-057-063-072>074-271000-
SOUTHWEST AND SOUTH CENTRAL SOUTH DAKOTA

CITY           SKY/WX    TMP DP  RH WIND       PRES   REMARKS
RAPID CTY ARPT CLOUDY    30  29  96 SE3       29.89F
PIERRE         CLOUDY    40  38  93 CALM      29.92F
CUSTER         CLOUDY    29  26  89 W3        29.88F
ELLSWORTH AFB  CLOUDY    33  33 100 SW5       29.88F WCI  29
PHILIP         CLOUDY    36  35  96 CALM      29.92S
PINE RIDGE     CLOUDY    41  39  93 W3        29.91F
SPEARFISH      FAIR      36  32  87 S5        29.87F
WINNER         FAIR      35  32  88 CALM      29.93F
$$

SDZ004>011-016>023-039-040-271000-
NORTHEAST SOUTH DAKOTA

CITY           SKY/WX    TMP DP  RH WIND       PRES   REMARKS
ABERDEEN       PTCLDY    32  30  92 SE5       29.93F WCI  27
WATERTOWN      CLOUDY    35  34  96 CALM      29.93F
BROOKINGS      CLOUDY    34  34 100 CALM      29.94F FOG
SISSETON         N/A     36  35  96 CALM      29.93F
$$

SDZ017-020-022-023-036>040-048>070-271000-
SOUTHEAST SOUTH DAKOTA

CITY           SKY/WX    TMP DP  RH WIND       PRES   REMARKS
SIOUX FALLS    CLOUDY    41  39  93 N3        29.95S
HURON          CLOUDY    37  36  96 SE3       29.94F
CHAMBERLAIN    CLOUDY    33  33 100 CALM      29.94F
MITCHELL       FOG       32  31  96 CALM      29.96F VSB 1/4
YANKTON        CLOUDY    43  39  87 CALM      29.95S
$$

ABBREVIATIONS USED IN REMARKS
   TC - TEMPERATURE IN CELSIUS
  WCI - WIND CHILL INDEX
   HX - HEAT INDEX
  VSB - VISIBILITY




USA.gov is the U.S. government's official web portal to all federal, state and local government web resources and services.